Location: New Chapel
(51.1667°N, 0.0500°W)
Time: 21:24:31
(UTC+00:00)

Daily predictions for brighter satellites

Satellite Brightness Start Highest point End
(mag) Time Altitude Azimuth Time Altitude Azimuth Time Altitude Azimuth
ATLAS 5 CENTAUR R/B 1.8 17:33:29 10° NW 17:37:36 83° SW 17:42:45 10° SE
Cosmos 1378 Rocket 4.1 17:36:36 10° SSE 17:40:34 37° E 17:44:32 10° NNE
ARIANE 6 FM1 Upper Stage 4.4 17:37:53 10° NW 17:40:38 17° N 17:43:21 10° NE
SeaSat 1 2.5 17:36:00 10° SSE 17:40:53 86° WSW 17:45:50 10° NNW
Resurs 01 Rocket 2.8 17:38:53 10° ESE 17:42:17 22° ENE 17:45:42 10° N
USA 234 4.1 17:36:02 10° SE 17:42:25 54° SW 17:48:50 10° WNW
Cosmos 1459 Rocket 4.1 17:36:29 10° N 17:42:43 90° ENE 17:49:01 10° S
SKYMED 2 4.2 17:38:46 10° NNE 17:42:48 36° E 17:46:49 10° SSE
Thor Agena Rocket 4.1 17:39:00 10° S 17:44:03 65° WSW 17:49:12 10° NNW
GP-B 3.2 17:40:28 10° SSE 17:44:43 54° E 17:49:00 10° N
Cosmos 2219 Rocket 3.0 17:40:31 10° NW 17:46:01 58° WSW 17:51:28 10° S
COSMO-SKYMED 1 3.5 17:43:39 10° NE 17:47:01 24° E 17:50:21 10° SSE
Cosmos 1727 Rocket 4.3 17:41:14 10° SSW 17:47:27 76° W 17:53:40 10° N
Cosmos 2292 Rocket 2.7 17:47:08 10° S 17:49:56 52° E 17:52:56 10° NNE
CZ-4 R/B 4.3 17:47:05 10° SSE 17:51:01 67° ENE 17:54:59 10° N
AQUARIUS 4.3 17:46:42 10° S 17:51:07 78° WSW 17:55:33 10° NNW
Cosmos 2322 3.7 17:45:28 10° NNW 17:51:12 72° ENE 17:56:54 10° SE
SJ-12 4.0 17:47:41 10° S 17:51:29 75° WSW 17:55:18 10° NNW
PSLV R/B 4.1 17:48:18 10° SE 17:51:59 32° ENE 17:55:40 10° N
USA 306 1.5 17:49:40 10° WNW 17:52:52 86° NNE 17:55:02 10° ESE
Cosmos 2016 Rocket 4.0 17:47:27 10° N 17:53:41 73° ENE 17:59:58 10° SSE
MOS 1 Rocket 4.5 17:49:28 10° S 17:53:49 45° W 17:58:02 10° NNW
IRS-P3 4.1 17:49:00 10° SSE 17:54:20 84° ENE 17:59:42 10° NNW
Resurs 1-3 3.6 17:51:25 10° SSE 17:55:37 55° ENE 17:59:51 10° N
Cosmos 1802 Rocket 4.1 17:50:38 10° N 17:57:04 88° E 18:03:30 10° S
Cosmos 2285 Rocket 4.3 17:51:52 10° NNW 17:58:04 46° NE 18:04:11 10° SE
Cosmos 1025 Rocket 3.7 17:55:05 10° SSE 17:58:54 32° E 18:02:47 10° NNE
SL-16 R/B 3.7 17:55:01 10° NNW 17:58:56 19° NNE 18:02:27 11° ENE
Cosmos 2242 Rocket 3.5 17:54:37 10° S 17:58:59 78° E 18:03:23 10° NNE
UNK 4.2 17:57:45 10° N 18:02:16 63° WNW 18:06:46 10° SSW
SPOT 1/Viking Rocket 3.7 17:59:24 10° SSE 18:04:31 82° WSW 18:09:41 10° NNW
NOSS 3-4 (A) 4.0 18:01:45 10° NW 18:07:54 48° NNE 18:15:08 10° ESE
NOSS 3-4 (C) 4.0 18:02:01 10° NW 18:08:11 48° NNE 18:15:24 10° ESE
SJ-6B 3.7 18:06:17 10° ESE 18:08:56 21° ENE 18:11:37 10° NNE
Cosmos 2233 Rocket 4.0 18:03:23 10° N 18:09:40 72° ENE 18:15:57 10° SSE
SPOT 5 4.3 18:08:20 12° E 18:11:09 19° NE 18:14:39 10° NNE
CZ-2D R/B 4.4 18:08:58 10° SSW 18:11:50 37° W 18:14:43 10° NNW
CZ-2D R/B 3.2 18:09:36 10° SSE 18:13:28 68° ENE 18:17:27 10° N
Cosmos 1725 Rocket 4.2 18:08:22 10° NNW 18:14:37 78° W 18:20:52 10° S
Cosmos 1674 Rocket 3.6 18:10:43 10° S 18:15:00 58° E 18:19:22 10° NNE
Cosmos 1315 Rocket 2.7 18:11:55 10° NNW 18:15:43 84° WSW 18:19:30 10° S
Meteor 1-11 4.2 18:12:49 10° S 18:18:23 70° E 18:24:05 10° NNE
Cosmos 1867 3.6 18:16:52 10° SW 18:22:19 86° SE 18:27:49 10° NE
SL-16 R/B 4.1 18:18:36 10° N 18:24:05 35° WNW 18:29:35 10° WSW
ATLAS 2AS CENTAUR R/B 3.7 18:18:04 10° W 18:24:34 40° NNW 18:30:57 10° NE
Cosmos 2061 Rocket 4.0 18:18:25 10° N 18:24:52 80° E 18:31:12 10° SSE
Cosmos 724 4.4 18:18:54 10° SSW 18:25:03 76° SE 18:31:08 10° NE
Lacrosse 5 rocket 0.9 18:22:32 10° WSW 18:26:01 82° NNW 18:28:21 20° ENE
CZ-4 R/B 3.1 18:28:09 14° NE 18:28:09 14° NE 18:29:16 10° NNE
Cosmos 2151 Rocket 3.8 18:26:08 10° NNW 18:30:38 74° W 18:35:06 10° S
Meteor 2-1 Rocket 4.3 18:24:53 10° NNW 18:30:42 83° E 18:36:35 10° SSE
CZ-4C R/B 1.8 18:27:41 10° SSW 18:31:52 59° SE 18:36:09 15° NE
Meteor 1-31 Rocket 4.0 18:32:59 19° NE 18:32:59 19° NE 18:34:53 10° NNE
CARTOSAT-1 3.4 18:31:22 10° SSE 18:35:33 80° ENE 18:39:47 10° NNW
Radarsat Rocket 4.0 18:29:42 10° SSE 18:35:34 86° WSW 18:41:53 10° NNW
IRAS Rocket 4.3 18:30:09 10° SE 18:35:38 58° ENE 18:41:10 10° NNW
NOSS 0 Rocket 4.0 18:30:42 10° NNW 18:37:00 83° WSW 18:43:14 10° SSE
Cosmos 1356 Rocket 3.9 18:34:25 10° NNW 18:38:16 58° W 18:42:10 10° S
USA 290 2.7 18:36:46 10° SW 18:39:55 59° WNW 18:43:01 11° NNE
Cosmos 1464 Rocket 4.3 18:39:06 10° N 18:45:11 44° ENE 18:51:11 10° SE
USA 267 3.5 18:41:48 17° ENE 18:46:54 65° NNW 18:53:22 10° W
ERS-1 Rocket 4.3 18:48:49 20° NE 18:48:49 20° NE 18:52:03 10° N
Cosmos 2297 Rocket 2.5 18:43:09 10° S 18:48:29 45° ESE 18:52:37 17° NE
Cosmos 1607 3.9 18:42:31 10° SW 18:48:39 87° SE 18:54:10 14° NE
BREEZE-M DEB (TANK) 4.1 18:45:54 10° W 18:49:22 62° SSW 18:56:52 17° ESE
Cosmos 1570 Rocket 4.4 18:44:46 10° S 18:49:38 39° ESE 18:52:48 20° NE
CSL-04 Rocket 4.0 18:47:26 19° ESE 18:50:41 39° ENE 18:55:34 10° N
Cosmos 1814 Rocket 4.4 18:45:27 10° SW 18:50:42 65° WNW 18:55:56 10° NNE
Cosmos 2344 4.5 18:45:02 10° SSE 18:50:42 22° ESE 18:51:12 22° ESE
Cosmos 1455 Rocket 2.9 18:46:41 10° N 18:50:58 62° ENE 18:55:13 10° SSE
DNEPR-1 R/B 4.2 18:47:30 10° NW 18:52:01 46° NE 18:54:13 30° E
Cosmos 1125 Rocket 3.6 18:48:35 10° NNW 18:53:47 75° WSW 18:58:57 10° SSE
Cosmos 2221 Rocket 3.6 18:53:05 10° S 18:57:33 87° W 19:02:05 10° N
YAOGAN 1 4.0 18:53:34 10° SSW 18:57:34 39° W 19:01:36 10° NNW
Okean 2 Rocket 4.0 18:55:31 10° NNW 18:59:47 49° W 19:04:00 10° SSW
Meteor 1-27 4.2 18:56:03 10° N 19:01:50 77° ENE 19:07:38 10° SSE
Okean 1 Rocket 3.9 18:58:48 10° NNW 19:03:06 53° W 19:07:20 10° S
DMSP B5D1-3 4.4 18:58:54 10° NNE 19:04:01 76° ESE 19:09:07 10° S
BREEZE-M DEB (TANK) 4.5 19:01:07 10° W 19:05:54 69° SSW 19:19:57 19° ESE
Cosmos 2208 Rocket 4.4 19:02:00 10° S 19:06:50 39° ESE 19:07:29 37° E
Terra 3.4 19:11:53 20° NNE 19:11:53 20° NNE 19:14:00 10° N
COSMOS 2428 4.1 19:05:44 10° NW 19:10:59 38° WSW 19:16:13 10° S
NOSS 3-3 (C) 3.6 19:07:37 10° SW 19:12:55 83° SE 19:16:44 25° NE
Cosmos 1980 3.9 19:09:12 10° NNW 19:14:51 71° WSW 19:20:28 10° SSE
CZ-4B R/B 3.7 19:14:51 62° E 19:15:04 63° ENE 19:18:58 10° N
Meteor 2-17 Rocket 4.3 19:09:48 10° S 19:15:46 64° E 19:21:46 10° NNE
Resurs 01 Rocket 2.4 19:14:04 10° S 19:18:21 52° W 19:22:40 10° NNW
Cosmos 2237 Rocket 2.4 19:14:48 10° NNW 19:20:28 70° WSW 19:25:52 11° SSE
ARIANE 6 FM1 Upper Stage 3.7 19:17:05 10° NW 19:20:14 31° NNE 19:20:14 31° NNE
COSMO-SKYMED 1 3.7 19:18:34 10° N 19:22:27 40° WNW 19:26:17 10° SW
Cosmos 44 Rocket 4.2 19:17:58 10° S 19:21:21 33° SSE 19:21:21 33° SSE
Aureole 3 Rocket 4.1 19:19:36 10° NNW 19:23:44 40° W 19:26:58 10° SSW
Cosmos 773 Rocket 4.0 19:18:56 10° S 19:24:04 57° ESE 19:25:06 48° ENE
Cosmos 2228 2.7 19:21:02 10° N 19:25:14 79° E 19:25:36 71° SE
Orbus 7S? 4.1 19:19:04 10° WNW 19:27:45 79° SW 19:28:58 50° SE
Cosmos 1782 4.4 19:27:55 10° N 19:29:13 21° N 19:29:13 21° N
Cosmos 2150 Rocket 3.8 19:27:11 10° NNW 19:32:24 87° ENE 19:33:58 46° SSE
Cosmos 2298 Rocket 3.9 19:27:48 10° NNW 19:33:08 84° ENE 19:34:42 47° SSE
Cosmos 836 Rocket 4.4 19:32:16 10° SSW 19:37:33 84° ESE 19:39:46 36° NNE
NOSS 3-3 (A) 4.1 19:36:36 10° WSW 19:41:55 64° NW 19:45:02 30° NNE
SJ-6B 4.2 19:39:26 13° SSW 19:42:10 32° W 19:45:19 10° NNW
SL-16 R/B 2.1 19:38:35 10° NNW 19:44:13 62° NE 19:44:20 62° ENE
Cosmos 2227 Rocket 2.9 19:41:52 10° S 19:45:30 38° SSE 19:45:30 38° SSE
SPOT 5 2.9 19:47:23 55° S 19:48:27 80° WSW 19:53:32 10° NNW
MOS 1 4.2 19:49:14 65° ENE 19:49:14 65° ENE 19:54:48 10° N
Okean O Rocket 4.1 20:02:07 12° N 20:02:07 12° N 20:02:33 10° N
NOSS 3-4 (A) 4.1 19:52:30 10° NW 19:59:07 63° SW 20:02:40 33° SSE
NOSS 3-4 (C) 4.1 19:52:46 10° NW 19:59:24 64° SW 20:02:53 34° SSE
Cosmos 1816 Rocket 4.4 19:54:32 10° S 20:00:42 87° W 20:06:58 10° N
CZ-4 R/B 3.4 20:03:09 20° NNW 20:03:09 20° NNW 20:04:26 10° NNW
Cosmos 2034 Rocket 3.9 19:54:45 10° N 20:00:57 87° W 20:02:53 47° S
Lacrosse 5 rocket 3.2 19:59:56 10° WNW 20:01:47 24° NW 20:01:47 24° NW
CZ-4B R/B 3.4 20:08:36 59° N 20:08:36 59° N 20:12:52 10° NNW
BREEZE-M DEB (TANK) 4.0 19:52:54 10° WSW 20:10:01 61° S 20:10:45 58° SSE
Cosmos 1634 Rocket 4.2 20:04:54 10° N 20:10:07 57° NNE 20:10:07 57° NNE
ADEOS 4.0 20:12:43 55° NNW 20:12:43 55° NNW 20:16:46 10° NNW
CZ-4B DEB 4.4 20:11:46 60° SW 20:12:29 67° WSW 20:17:57 10° NNW
ATLAS 2AS CENTAUR R/B 3.9 20:11:22 10° WNW 20:17:13 29° N 20:18:40 26° NNE
CZ-4C R/B 3.2 20:16:00 10° W 20:20:24 37° NNW 20:21:06 36° N
ERS-1 Rocket 4.2 20:28:40 36° NNW 20:28:40 36° NNW 20:31:39 10° NNW
USA 267 3.6 20:29:08 54° NNE 20:29:30 54° N 20:35:50 10° WNW
Cosmos 2297 Rocket 3.3 20:27:17 10° WSW 20:32:36 40° NW 20:34:29 31° N
Cosmos 1943 4.4 20:30:01 10° NNW 20:33:23 35° N 20:33:23 35° N
Terra 4.0 20:50:29 21° NNW 20:50:29 21° NNW 20:52:06 10° NNW
Cosmos 2344 4.2 20:56:22 10° SW 21:01:17 43° SW 21:01:17 43° SW
SL-16 R/B 4.2 21:23:16 10° NW 21:26:12 23° WNW 21:26:12 23° WNW
